Weather History for Hurlburt Field, FL

Change the Weather History Date:

Wednesday, August 7, 2013

  Actual Average Record
Temperature  
Mean Temperature 80 °F -  
Max Temperature 90 °F 87 °F 95 °F (2007)
Min Temperature 72 °F 73 °F 71 °F (1996)
Cooling Degree Days 16    
Growing Degree Days 30 (Base 50)    
Moisture  
Dew Point 74 °F    
Average Humidity 77    
Maximum Humidity 91    
Minimum Humidity 59    
Precipitation  
Precipitation 0.04 in - - ()
Sea Level Pressure  
Sea Level Pressure 29.95 in    
Wind  
Wind Speed 6 mph (ENE)    
Max Wind Speed 17 mph    
Max Gust Speed 26 mph    
Visibility 9 miles    
Events Rain , Thunderstorm    
Averages and records for this station are not official NWS values.
T = Trace of Precipitation, MM = Missing Value Source: NWS Daily Summary

Daily Weather History Graph

Daily Weather History Graph

Search for Another Location

Airport:

Trip Planner

Search our weather history database for the weather conditions in past years. The results will help you decide how hot, cold, wet, or windy it might be!

Date:

Astronomy

Aug. 07, 2013 Rise Set
Actual Time 6:08 AM CDT 7:35 PM CDT
Civil Twilight 5:43 AM CDT 8:01 PM CDT
Nautical Twilight 5:12 AM CDT 8:31 PM CDT
Astronomical Twilight 4:40 AM CDT 9:03 PM CDT
Moon 6:49 AM CDT (8/7) 7:52 PM CDT (8/7)
Length of Visible Light 14h 18m
Length of Day
13h 26m
New Moon, 1% of the Moon is Illuminated
Aug 7
New Moon
Aug 14
First Quarter
Aug 20
Full
Aug 28
Last Quarter
Sep 5
New

Hourly Weather History & Observations

Time (CDT) Temp. Heat Index Dew Point Humidity Pressure Visibility Wind Dir Wind Speed Gust Speed Precip Events Conditions
12:58 AM 75.6 °F - 72.5 °F 90% 29.93 in 10.0 mi North 8.1 mph - N/A   Clear
1:58 AM 74.1 °F - 71.1 °F 90% 29.93 in 10.0 mi North 8.1 mph - N/A   Partly Cloudy
2:58 AM 73.8 °F - 70.7 °F 90% 29.93 in 10.0 mi NNE 8.1 mph - N/A   Clear
3:58 AM 73.0 °F - 70.0 °F 90% 29.94 in 10.0 mi North 5.8 mph - N/A   Clear
4:58 AM 73.0 °F - 70.3 °F 91% 29.95 in 10.0 mi NNE 5.8 mph - N/A   Mostly Cloudy
5:58 AM 72.7 °F - 69.6 °F 90% 29.95 in 10.0 mi NNE 4.6 mph - N/A   Clear
6:58 AM 73.4 °F - 70.0 °F 89% 29.96 in 10.0 mi NNE 4.6 mph - N/A   Clear
7:58 AM 76.8 °F - 70.2 °F 80% 29.99 in 10.0 mi NE 3.5 mph - N/A   Clear
8:58 AM 81.1 °F 85.2 °F 71.4 °F 72% 29.99 in 10.0 mi NE 6.9 mph - N/A   Clear
9:44 AM 84.2 °F 90.9 °F 73.4 °F 70% 29.97 in 10.0 mi ENE 5.8 mph - N/A Rain Light Rain
9:52 AM 84.2 °F 90.9 °F 73.4 °F 70% 29.97 in 10.0 mi NE 5.8 mph - N/A   Clear
9:58 AM 84.2 °F 90.6 °F 73.0 °F 69% 29.98 in 10.0 mi NE 4.6 mph - 0.00 in   Clear
10:58 AM 87.6 °F 94.8 °F 72.9 °F 61% 30.00 in 10.0 mi ENE 4.6 mph - N/A   Clear
11:58 AM 88.5 °F 97.8 °F 74.3 °F 63% 29.99 in 10.0 mi SSE 10.4 mph - N/A   Clear
12:58 PM 88.0 °F 95.6 °F 73.0 °F 61% 29.97 in 10.0 mi South 6.9 mph - N/A   Partly Cloudy
2:55 PM 89.6 °F 98.2 °F 73.4 °F 59% 29.94 in 10.0 mi South 9.2 mph - N/A   Clear
3:41 PM 89.6 °F 99.8 °F 75.2 °F 62% 29.92 in 10.0 mi South 11.5 mph - N/A Thunderstorm Scattered Clouds
3:58 PM 89.8 °F 100.3 °F 75.2 °F 62% 29.94 in 10.0 mi SSE 17.3 mph 26.5 mph N/A   Partly Cloudy
4:06 PM 87.8 °F 99.7 °F 77.0 °F 70% 29.93 in 10.0 mi SE 10.4 mph 26.5 mph N/A Thunderstorm Thunderstorm
4:21 PM 87.8 °F 97.6 °F 75.2 °F 66% 29.93 in 9.0 mi ENE 11.5 mph - N/A Rain , Thunderstorm Light Thunderstorms and Rain
4:31 PM 86.0 °F 96.9 °F 77.0 °F 74% 29.93 in 2.5 mi Variable 2.3 mph - N/A Rain , Thunderstorm Light Thunderstorms and Rain
4:36 PM 84.2 °F 94.1 °F 77.0 °F 79% 29.93 in 3.0 mi Variable 3.5 mph - N/A Rain , Thunderstorm Light Thunderstorms and Rain
4:41 PM 84.2 °F 94.1 °F 77.0 °F 79% 29.93 in 6.0 mi NNE 3.5 mph - N/A Rain , Thunderstorm Light Rain
4:51 PM 82.4 °F 90.9 °F 77.0 °F 84% 29.93 in 9.0 mi NNE 1.2 mph - N/A Rain , Thunderstorm Light Rain
4:58 PM 81.7 °F 88.3 °F 75.4 °F 81% 29.94 in 9.0 mi Calm Calm - 0.04 in Rain , Thunderstorm Light Rain
5:03 PM 82.4 °F 89.5 °F 75.2 °F 79% 29.93 in 10.0 mi WSW 3.5 mph - N/A Rain , Thunderstorm Light Rain
5:13 PM 82.4 °F 89.5 °F 75.2 °F 79% 29.92 in 10.0 mi ESE 4.6 mph - N/A   Scattered Clouds
5:58 PM 83.5 °F 91.6 °F 75.6 °F 77% 29.92 in 10.0 mi ESE 5.8 mph - 0.00 in   Clear
6:58 PM 82.9 °F 90.2 °F 75.2 °F 77% 29.93 in 10.0 mi ENE 2.3 mph - N/A   Clear
7:43 PM 82.4 °F 89.5 °F 75.2 °F 79% 29.93 in 10.0 mi East 3.5 mph - N/A   Light Drizzle
7:58 PM 82.2 °F 89.1 °F 75.2 °F 79% 29.94 in 10.0 mi Calm Calm - 0.00 in Rain Light Rain
8:17 PM 82.4 °F 89.5 °F 75.2 °F 79% 29.94 in 10.0 mi North 2.3 mph - N/A   Clear
8:58 PM 82.0 °F 89.1 °F 75.6 °F 81% 29.97 in 10.0 mi ESE 2.3 mph - 0.00 in   Clear
9:58 PM 81.9 °F 88.7 °F 75.6 °F 81% 29.97 in 10.0 mi Variable 2.3 mph - N/A   Clear
10:58 PM 82.0 °F 89.4 °F 76.1 °F 82% 29.97 in 10.0 mi Variable 2.3 mph - N/A   Clear
11:58 PM 80.1 °F 85.4 °F 75.7 °F 87% 29.97 in 10.0 mi NNE 1.2 mph - N/A   Clear